Location: Observatoire
(46.1952°N, 5.3391°E)
Time: 21:28:09
(UTC+01:00)

A-11 Canister half - Pass Details

Date: 26 February 2026
Orbit: 1525 x 1683 km, 47.3° (Epoch: 5 March)

Event Time Altitude Azimuth Distance (km) Brightness Sun altitude
Rises 17:12:36 0° 265° (W) 4,738 13.1 10.3°
Reaches altitude 10° 17:15:42 10° 266° (W) 3,737 12.7 9.8°
Maximum altitude 17:25:09 84° 356° (N) 1,541 9.2 8.3°
Drops below altitude 10° 17:34:29 10° 86° (E) 3,692 10.4 6.8°
Sets 17:37:32 0° 87° (E) 4,678 10.9 6.3°
